This is the latest recevied weather packets stored in our database for station/object K9JWM. If no packets are shown the sender has not sent any weather packets the latest 10 day(s).
| Time | Temp. | Humidity | Pressure | Rain* | Wind** | Luminosity | Snow |
|---|---|---|---|---|---|---|---|
| 1777808829 | 7.78° C | 78% | 1004.4 hPa | 0 mm | - | - | - |
| 1777807930 | 7.78° C | 78% | 1004.4 hPa | 0 mm | - | - | - |
| 1777807029 | 7.78° C | 77% | 1004.2 hPa | 0 mm | - | - | - |
| 1777806129 | 7.78° C | 78% | 1004.3 hPa | 0 mm | - | - | - |
| 1777805229 | 7.78° C | 78% | 1004.5 hPa | 0 mm | - | - | - |
| 1777804329 | 8.33° C | 77% | 1004.7 hPa | 0 mm | - | - | - |
| 1777803430 | 8.33° C | 77% | 1004.8 hPa | 0 mm | - | - | - |
| 1777802530 | 8.89° C | 76% | 1005 hPa | 0 mm | - | - | - |
| 1777801630 | 8.89° C | 75% | 1005.2 hPa | 0 mm | - | - | - |
| 1777800729 | 9.44° C | 74% | 1005.1 hPa | 0 mm | - | - | - |
| 1777799829 | 9.44° C | 73% | 1005.2 hPa | 0 mm | - | - | - |
| 1777798929 | 10° C | 72% | 1005.4 hPa | 0 mm | - | - | - |
| 1777798030 | 10° C | 72% | 1005.6 hPa | 0 mm | - | - | - |
| 1777797129 | 10° C | 72% | 1005.8 hPa | 0 mm | - | - | - |
| 1777796228 | 10° C | 72% | 1006.1 hPa | 0 mm | - | - | - |
| 1777795329 | 10.56° C | 71% | 1006.4 hPa | 0 mm | - | - | - |
| 1777794430 | 10.56° C | 74% | 1006.6 hPa | 0 mm | - | - | - |
| 1777793528 | 11.11° C | 71% | 1006.8 hPa | 0 mm | - | - | - |
| 1777792630 | 11.11° C | 68% | 1007.2 hPa | 0 mm | - | - | - |
| 1777791729 | 11.67° C | 68% | 1007.7 hPa | 0 mm | - | - | - |
| 1777790829 | 11.67° C | 65% | 1007.9 hPa | 0 mm | - | - | - |
| 1777789929 | 12.22° C | 65% | 1007.9 hPa | 0 mm | - | - | - |
| 1777789029 | 12.22° C | 59% | 1008 hPa | 0 mm | - | - | - |
| 1777788130 | 12.22° C | 61% | 1008.1 hPa | 0 mm | - | - | - |
| 1777787229 | 12.22° C | 61% | 1008.2 hPa | 0 mm | - | - | - |
* Rain latest hour (hover to see other rain measurements)
** Current wind speed in m/s (hover to see current wind gust speed)